Tracking 30995 objects as of 7-Jul-2025
HD Live streaming from Space Station
objects crossing your sky now

STARLINK-31177

Track STARLINK-31177 now!
10-day predictions
STARLINK-31177 is classified as:


NORAD ID: 58873
Int'l Code: 2024-019W
Perigee: 494.2 km
Apogee: 496.2 km
Inclination: 43.0 °
Period: 94.4 minutes
Semi major axis: 6866 km
RCS: Unknown
Launch date: January 29, 2024
Source: United States (US)
Launch site: AIR FORCE EASTERN TEST RANGE (AFETR)
Your satellite tracking list
Your tracking list is empty




NASA's NSSDC Master Catalog

Two Line Element Set (TLE):
1 58873U 24019W   25187.36091045  .00000017  00000-0  10487-4 0  9990
2 58873  43.0023 199.7117 0001475 268.9548  91.1134 15.25905065 81410
Source of the keplerian elements: AFSPC